User: anonymous   Login
Location: Unspecified
(0.0000°N, 0.0000°E)
Time: 17:47:47
(UTC+02:00)
Language:

Cosmos 494 Rocket - Orbit

View from above orbital plane
View from above orbital plane
View from above satellite
View from above satellite

Ground track
Ground track

The orbit data is extracted from the following two-line orbital elements,

1  6061U 72043B   17232.92521961 -.00000018 +00000-0 +27792-5 0  9991
2  6061 074.0554 060.5793 0019990 177.5456 182.5801 14.40503493367388
Epoch (UTC): 20 August 2017 22:12:18
Eccentricity: 0.0019990
inclination: 74.0554°
perigee height: 742 km
apogee height: 771 km
right ascension of ascending node: 60.5793°
argument of perigee: 177.5456°
revolutions per day: 14.40503493
mean anomaly at epoch: 182.5801°
orbit number at epoch: 36738

The dashed part of the orbit path shows where the satellite is in the earth's shadow,  

DLR